Simultaneous Nadir Overpasses (SNOs) Predictions

Prediction of SNOs between AURA and NPP Satellite Orbit:

Table of predicted SNOs for the next 14.0 days since TLE Epoch: 10/6/2018
Index Date (AURA) Time (AURA) Lat,Lon (AURA) SZA (AURA ) Date (NPP) Time (NPP) Lat,Lon (NPP) SZA (NPP ) Distance(km) Time Diff (sec)
1 10/08/2018 02:51:59 79.39, 33.02 97.74 10/08/2018 02:51:20 79.39, 32.99 97.77 0.76 39
2 10/08/2018 03:41:19 -79.67,-157.42 82.64 10/08/2018 03:41:57 -79.67,-157.43 82.66 0.35 38
3 10/10/2018 19:08:24 79.52, 149.76 98.53 10/10/2018 19:08:11 79.52, 149.80 98.53 0.80 13
4 10/10/2018 19:57:45 -79.76, -40.89 81.80 10/10/2018 19:58:49 -79.76, -40.84 81.85 0.93 64
5 10/13/2018 10:35:33 -79.28, 96.36 80.20 10/13/2018 10:34:29 -79.27, 96.23 80.12 2.94 64
6 10/13/2018 11:24:49 79.64, -93.50 99.32 10/13/2018 11:25:02 79.65, -93.37 99.29 2.78 13
7 10/16/2018 02:51:57 -79.44,-146.70 79.46 10/16/2018 02:51:19 -79.43,-146.73 79.43 0.89 38
8 10/16/2018 03:41:16 79.68, 22.68 100.21 10/16/2018 03:41:56 79.68, 22.62 100.19 1.24 40
9 10/18/2018 19:08:21 -79.55, -30.01 78.69 10/18/2018 19:08:09 -79.56, -29.93 78.69 1.74 12




NCC Satellite Simultaneous Nadir Overpasses (SNOs) Prediction Service
